カタログに戻る

ARIANE 5 DEB

SYLDA

運用中HEO
NORAD 33461·DEBRIS·🇫🇷 France

打ち上げ Dec 20, 2008 から Guiana Space Centre

Loading…

次のパス (今後24時間)

TLE

最新Source: Space-Track

元期: Sep 14, 2026, 12:41 UTC

1 33461U 08065C   26257.52854546  .00042647  00000-0  63943-2 0  9997
2 33461   4.4762  41.1581 5884190 175.4709 194.3134  4.22940762210284

AllMySatでARIANE 5 DEBをリアルタイム追跡

Download on the App Store